Wind_Speed
25 25 26 25 26 26 25 25 25 24 24 24 24 24 24 24 24 24 23 24 24 23 23 24 25 26 26 26 27 28 28 28 28 29 30 31 31 31 31 31 31 31 31
24 25 25 25 24 23 23 22 23 23 23 23 23 22 22 22 22 22 23 23 23 23 23 23 24 25 25 25 27 28 27 27 27 27 28 29 30 30 30 30 31 32 32
24 24 23 22 22 22 21 21 21 21 22 22 21 21 21 21 21 21 21 21 22 22 22 22 22 23 24 24 25 26 26 26 26 27 28 28 28 30 30 30 31 32 32
23 22 21 21 21 21 21 21 20 20 20 20 19 19 19 20 19 19 20 20 20 21 21 21 21 22 23 23 23 24 25 25 26 26 26 27 27 28 28 29 29 29 30
21 20 20 20 19 20 20 20 19 18 18 18 18 18 18 18 18 18 18 18 19 20 21 21 21 21 21 21 22 22 23 24 25 25 26 26 26 27 27 27 28 28 28
19 19 19 19 19 18 18 17 17 17 17 17 17 17 17 16 15 16 16 17 18 18 18 19 19 19 19 19 20 20 21 22 23 24 25 25 26 26 27 27 27 27 27
18 18 18 18 18 17 16 16 16 16 16 15 16 16 16 15 14 15 16 16 17 17 17 18 18 18 19 19 18 19 19 20 22 23 24 25 26 26 26 27 27 27 27
16 17 17 17 17 16 16 16 15 15 15 15 15 15 15 14 14 15 15 15 16 16 17 17 17 17 17 18 18 18 18 19 20 21 23 24 25 25 25 25 26 26 26
16 16 16 16 15 16 15 15 15 14 14 14 13 13 13 13 14 14 14 15 15 16 16 16 17 17 17 16 16 16 16 16 17 18 20 21 23 23 24 25 25 25 25
15 15 15 15 15 14 14 14 14 14 14 13 13 12 12 13 13 13 14 14 15 15 15 15 16 15 15 15 15 14 14 14 14 15 17 18 19 20 22 24 24 25 26
15 15 16 15 15 14 14 13 13 13 14 13 13 13 12 13 13 14 14 14 15 15 15 15 15 14 14 14 13 12 13 14 14 14 15 16 17 18 20 22 23 24 24
14 15 15 15 14 14 13 13 13 13 14 14 13 13 14 14 14 14 14 14 14 14 14 13 13 12 12 12 12 12 12 12 13 14 14 15 16 17 19 19 20 22 23
14 14 14 14 14 14 14 14 14 14 14 14 14 14 14 14 14 14 14 14 14 14 14 13 12 12 12 12 12 11 11 11 12 13 14 15 16 17 18 18 19 20 21
14 13 14 14 14 14 14 14 15 15 14 14 14 14 14 14 14 14 14 14 14 14 13 13 12 12 12 12 12 11 11 11 12 12 13 14 14 15 15 16 17 18 20
13 13 13 14 14 14 14 15 15 15 15 15 14 15 15 15 15 15 14 14 14 13 13 13 12 11 11 12 12 11 11 11 11 11 11 12 12 13 13 14 15 16 17
13 13 13 14 15 15 16 16 16 16 15 15 15 16 16 15 15 15 16 15 15 14 14 13 12 12 12 11 11 11 10 11 11 11 11 11 12 12 13 13 14 15 16
13 13 13 14 15 16 16 16 17 17 16 16 16 16 16 16 15 16 16 16 15 15 15 14 13 13 12 12 12 12 12 12 11 11 11 11 12 12 13 13 14 15 15
14 14 14 14 15 16 16 17 17 17 17 17 17 17 17 17 17 17 16 16 16 16 16 15 14 14 13 13 13 12 12 12 12 12 12 12 12 12 13 14 14 15 16
15 15 15 15 16 17 17 17 18 18 18 17 17 17 18 18 18 18 18 17 16 16 16 16 15 15 14 15 15 15 15 14 14 14 14 14 14 14 14 14 15 16 16
15 16 16 17 17 18 18 18 18 18 18 18 17 18 19 19 19 19 19 19 18 17 17 17 16 15 15 15 16 16 16 15 15 16 16 16 16 16 16 16 16 17 17
15 16 17 18 18 19 19 18 18 18 18 18 18 19 20 20 20 20 20 20 19 19 18 18 17 17 17 16 16 17 17 17 17 17 18 18 18 18 17 18 18 19 20
16 17 18 19 19 20 20 19 19 19 19 19 20 20 20 20 21 20 21 21 21 20 20 19 18 18 18 18 18 19 19 19 18 18 19 19 19 19 19 20 20 21 21
17 18 19 19 20 21 21 20 20 20 21 21 21 21 21 21 21 21 21 22 22 22 21 21 21 20 20 20 20 21 20 20 20 20 20 19 20 20 20 21 21 22 23
18 19 20 20 21 21 22 22 22 22 23 22 22 22 22 22 22 22 22 23 23 23 23 23 23 22 22 22 21 21 21 22 22 23 23 22 22 22 23 23 23 24 24
20 20 21 22 22 22 22 23 24 24 23 23 23 23 23 24 23 23 24 24 25 25 25 25 24 24 24 25 25 24 24 24 25 25 25 24 25 25 25 25 25 26 27
21 21 22 23 23 23 23 24 24 24 24 24 23 23 24 25 25 25 25 26 27 27 27 26 27 27 27 27 28 28 27 27 27 27 26 26 26 26 26 25 25 26 26
Wind_Direction
303 301 300 299 298 295 294 293 292 293 293 293 293 293 292 289 288 287 284 281 280 278 278 277 277 276 273 271 270 268 266 263 260 256 253 252 252 252 251 250 249 248 248
305 304 302 301 300 298 297 295 293 292 293 293 292 293 295 294 291 288 285 283 281 280 279 279 278 278 274 272 272 269 266 263 258 254 251 252 251 250 249 249 249 249 248
309 308 305 303 302 301 299 296 294 294 294 297 295 294 295 295 293 290 288 285 283 281 279 278 278 278 276 274 273 269 266 261 257 254 251 252 252 250 249 249 249 248 248
311 309 307 306 305 304 304 301 297 296 297 299 299 297 297 297 296 292 287 286 285 282 279 279 279 279 278 277 273 270 266 261 257 253 250 251 250 250 249 249 248 248 246
314 312 310 309 309 308 307 305 301 298 299 300 303 301 299 299 297 295 292 290 288 285 283 283 280 282 281 278 274 271 266 261 257 253 250 250 250 249 248 249 248 249 247
320 319 316 314 313 313 312 309 305 303 304 303 302 304 305 303 301 298 296 295 292 289 286 285 284 284 284 281 277 273 268 262 257 254 251 250 249 248 249 249 247 246 246
324 324 323 321 321 319 317 315 313 309 308 306 307 306 305 306 305 301 299 296 295 293 290 288 288 286 285 285 281 276 271 265 259 257 254 252 251 249 249 248 248 248 246
329 328 327 327 328 326 323 320 319 317 315 314 312 311 309 308 308 307 305 303 301 298 296 294 291 289 290 287 282 277 274 270 264 260 257 254 251 249 247 246 247 248 247
334 335 335 334 334 334 331 330 327 324 323 321 318 316 316 314 312 312 309 307 306 303 302 300 296 293 292 291 286 281 277 275 268 263 261 256 252 249 245 245 246 246 247
342 344 343 342 340 339 336 335 333 332 333 329 325 323 324 322 320 317 317 315 311 307 304 303 300 297 295 295 293 287 281 280 275 270 266 259 253 251 249 247 247 247 248
346 349 351 351 349 346 344 342 340 337 338 336 331 329 329 328 324 320 318 319 319 316 310 307 305 301 298 297 294 288 284 280 275 271 268 262 257 255 253 249 247 246 245
349 352 354 355 356 356 354 350 348 345 341 338 334 331 330 331 330 326 323 321 320 320 318 313 311 307 301 301 301 296 290 284 278 273 269 265 261 258 256 251 249 247 245
350 351 355 358 358 360 358 355 353 350 347 345 340 336 334 334 334 334 331 329 328 322 321 321 317 313 309 306 305 303 296 290 288 283 275 270 266 261 258 255 252 249 246
356 356 357 0 2 1 0 359 358 356 353 348 346 344 343 343 342 340 340 340 339 336 331 327 324 321 318 316 312 307 303 299 294 290 284 278 271 267 262 259 256 250 246
2 4 5 6 5 3 2 0 358 357 356 353 352 350 348 347 346 344 344 343 342 342 340 337 331 325 322 320 317 315 310 305 300 294 288 284 280 274 267 262 258 253 247
4 4 4 4 3 2 1 359 357 356 355 354 353 351 349 349 349 346 342 340 340 338 337 337 333 329 325 321 319 318 313 309 304 297 291 287 284 280 272 265 260 255 251
4 3 1 359 359 360 359 359 358 356 353 351 351 349 347 346 346 344 341 338 337 336 335 334 331 327 325 322 316 314 311 307 302 297 294 291 289 283 277 270 264 258 255
5 3 1 359 358 357 355 354 353 351 351 349 347 347 347 345 344 343 341 339 337 336 335 333 329 326 325 322 320 316 311 306 302 299 297 294 291 288 283 275 269 264 261
7 4 2 359 357 354 352 351 351 350 348 348 348 347 346 345 344 343 341 338 336 334 335 334 329 323 321 320 317 315 311 306 303 299 298 297 294 291 287 281 273 268 266
7 4 1 359 357 354 352 352 352 351 349 349 349 349 347 345 345 345 343 340 335 330 329 329 328 325 321 320 317 313 311 307 302 299 296 295 294 291 286 281 277 273 269
4 1 359 357 355 353 351 351 351 351 351 348 347 345 345 346 347 347 345 343 339 333 330 328 324 322 319 318 317 314 311 307 303 300 297 294 291 288 284 280 277 274 271
360 357 356 354 354 354 351 349 349 350 348 347 345 344 342 342 342 342 341 339 337 336 333 330 325 322 320 317 314 312 310 307 303 302 300 296 293 288 284 281 279 276 274
359 359 358 356 354 352 351 350 348 346 346 344 343 341 340 339 338 337 336 336 335 334 331 328 324 320 319 317 314 310 309 308 305 303 301 298 296 292 287 284 281 278 277
360 359 358 355 352 350 348 347 347 345 343 341 340 340 340 339 337 335 335 334 333 331 329 326 324 321 318 316 313 309 306 305 303 302 300 298 295 292 289 286 284 281 279
359 357 355 353 351 348 347 346 345 344 343 342 340 339 338 338 336 333 332 331 330 329 329 327 326 324 320 316 311 308 304 302 301 299 296 295 293 292 290 287 285 282 279
358 356 353 351 350 348 347 346 346 345 344 343 342 341 341 340 337 333 330 329 328 328 328 327 325 323 320 316 312 308 304 302 301 300 297 295 293 291 289 287 284 282 281
Height
5770 5767 5764 5761 5758 5755 5753 5750 5748 5746 5743 5741 5739 5736 5734 5731 5729 5727 5726 5724 5723 5721 5720 5719 5718 5717 5716 5715 5715 5714 5714 5715 5716 5717 5718 5719 5721 5722 5724 5726 5728 5730 5732
5764 5761 5757 5754 5751 5749 5746 5744 5741 5739 5737 5734 5732 5729 5727 5724 5722 5720 5719 5717 5715 5714 5713 5712 5711 5709 5708 5707 5707 5706 5706 5706 5707 5708 5709 5710 5712 5713 5715 5717 5719 5721 5723
5759 5755 5751 5748 5745 5743 5740 5738 5735 5733 5731 5728 5726 5723 5721 5718 5716 5714 5712 5710 5709 5707 5706 5705 5703 5702 5701 5700 5699 5698 5697 5698 5698 5699 5701 5702 5703 5705 5707 5708 5710 5712 5714
5753 5750 5746 5743 5740 5737 5734 5731 5729 5727 5725 5722 5720 5718 5715 5713 5710 5708 5706 5704 5702 5701 5699 5698 5697 5695 5694 5692 5691 5690 5690 5689 5690 5691 5692 5694 5695 5697 5698 5700 5702 5703 5705
5749 5745 5742 5738 5735 5732 5729 5726 5724 5721 5719 5718 5715 5712 5710 5707 5705 5702 5700 5698 5697 5695 5693 5692 5690 5688 5687 5685 5684 5683 5682 5682 5683 5683 5685 5686 5687 5688 5690 5692 5694 5696 5697
5745 5741 5737 5734 5730 5727 5724 5721 5719 5717 5715 5713 5710 5707 5705 5702 5700 5698 5695 5693 5692 5690 5688 5686 5684 5682 5680 5679 5677 5676 5675 5675 5676 5676 5677 5678 5679 5681 5682 5684 5686 5688 5690
5741 5737 5733 5730 5726 5723 5721 5718 5715 5713 5710 5708 5706 5703 5701 5698 5696 5693 5691 5689 5687 5684 5682 5681 5679 5677 5674 5673 5671 5670 5669 5668 5669 5669 5670 5670 5672 5673 5675 5676 5678 5680 5682
5738 5734 5731 5727 5723 5720 5717 5714 5712 5709 5707 5704 5702 5699 5697 5695 5692 5690 5687 5685 5682 5680 5678 5676 5673 5671 5669 5667 5666 5665 5663 5662 5662 5662 5663 5663 5664 5665 5666 5668 5670 5672 5674
5735 5732 5728 5724 5721 5717 5714 5711 5709 5706 5703 5701 5698 5696 5694 5691 5689 5686 5684 5681 5679 5676 5673 5671 5669 5667 5665 5663 5661 5660 5658 5657 5656 5656 5656 5656 5657 5658 5659 5661 5663 5665 5666
5734 5730 5726 5722 5719 5715 5712 5709 5707 5704 5701 5698 5696 5693 5691 5688 5686 5683 5681 5678 5675 5672 5670 5667 5665 5663 5660 5659 5657 5655 5654 5653 5652 5651 5651 5651 5651 5652 5653 5654 5656 5657 5659
5732 5728 5725 5721 5717 5714 5711 5708 5705 5702 5699 5697 5694 5691 5689 5686 5683 5680 5678 5675 5672 5669 5666 5664 5661 5659 5657 5655 5653 5652 5650 5649 5648 5647 5647 5646 5646 5647 5647 5648 5649 5651 5652
5731 5727 5723 5720 5716 5713 5710 5707 5704 5701 5699 5696 5693 5690 5687 5684 5681 5678 5675 5672 5669 5666 5663 5661 5658 5656 5654 5652 5650 5649 5647 5646 5644 5643 5643 5642 5642 5642 5642 5643 5643 5644 5646
5730 5726 5723 5719 5716 5713 5710 5707 5704 5701 5697 5694 5691 5688 5685 5682 5679 5676 5672 5669 5666 5663 5661 5658 5656 5653 5651 5650 5648 5646 5644 5643 5641 5640 5639 5638 5638 5638 5637 5638 5638 5639 5640
5729 5726 5722 5719 5716 5713 5710 5707 5704 5700 5697 5694 5690 5687 5684 5680 5677 5674 5671 5667 5664 5661 5658 5656 5653 5651 5649 5647 5645 5643 5641 5640 5638 5637 5636 5635 5634 5633 5633 5633 5633 5633 5635
5729 5725 5722 5719 5716 5713 5710 5707 5704 5700 5696 5693 5689 5686 5683 5679 5676 5672 5669 5666 5663 5660 5657 5654 5651 5649 5647 5645 5643 5641 5639 5637 5636 5634 5633 5631 5630 5629 5629 5628 5628 5628 5629
5729 5726 5723 5720 5717 5713 5710 5707 5703 5700 5696 5692 5689 5685 5682 5678 5674 5671 5667 5664 5661 5658 5655 5652 5649 5647 5645 5642 5640 5638 5637 5635 5633 5631 5630 5629 5627 5626 5625 5624 5624 5624 5625
5729 5726 5723 5720 5716 5713 5710 5706 5703 5699 5695 5691 5688 5684 5681 5677 5673 5669 5666 5662 5659 5656 5653 5650 5648 5645 5643 5640 5638 5636 5634 5632 5631 5629 5627 5626 5624 5623 5622 5621 5620 5620 5621
5729 5726 5722 5719 5716 5713 5709 5706 5702 5698 5694 5690 5687 5683 5679 5675 5671 5668 5664 5661 5657 5654 5651 5648 5645 5643 5641 5638 5636 5634 5632 5630 5628 5626 5624 5622 5621 5619 5618 5617 5617 5616 5616
5729 5726 5722 5719 5715 5712 5708 5705 5700 5697 5693 5689 5685 5681 5677 5674 5670 5666 5662 5659 5655 5652 5649 5646 5643 5640 5638 5636 5633 5631 5629 5626 5624 5622 5621 5619 5617 5615 5614 5613 5612 5612 5612
5729 5726 5722 5719 5715 5711 5707 5703 5699 5695 5692 5688 5684 5680 5676 5672 5668 5663 5659 5656 5652 5649 5646 5643 5640 5637 5635 5632 5630 5627 5625 5623 5620 5618 5616 5615 5613 5611 5610 5609 5608 5607 5606
5729 5726 5722 5718 5714 5711 5706 5702 5698 5694 5690 5686 5682 5678 5674 5670 5665 5661 5657 5653 5650 5646 5643 5640 5637 5634 5631 5628 5625 5623 5621 5618 5616 5614 5612 5610 5608 5606 5604 5603 5602 5601 5600
5729 5726 5722 5718 5714 5709 5705 5701 5697 5692 5688 5684 5680 5676 5672 5668 5663 5659 5655 5651 5647 5643 5640 5636 5633 5630 5627 5624 5621 5618 5616 5613 5611 5608 5606 5604 5602 5600 5598 5596 5595 5594 5593
5728 5725 5721 5717 5713 5708 5704 5699 5695 5691 5686 5682 5678 5674 5669 5665 5661 5657 5653 5649 5644 5640 5636 5633 5629 5626 5622 5619 5616 5613 5610 5608 5605 5603 5600 5598 5595 5593 5591 5589 5588 5586 5585
5728 5724 5720 5716 5711 5707 5702 5697 5693 5688 5684 5680 5675 5671 5666 5662 5658 5654 5649 5645 5641 5637 5633 5629 5625 5621 5617 5614 5611 5607 5604 5602 5599 5596 5593 5591 5588 5586 5584 5582 5580 5578 5577
5727 5723 5718 5714 5709 5705 5700 5695 5691 5686 5681 5677 5672 5668 5663 5659 5654 5650 5646 5641 5637 5633 5628 5624 5620 5616 5612 5608 5604 5601 5597 5594 5591 5588 5585 5583 5580 5578 5575 5573 5571 5570 5568
5726 5722 5717 5712 5708 5703 5698 5693 5688 5684 5679 5674 5669 5665 5660 5655 5651 5646 5641 5637 5633 5628 5623 5619 5614 5610 5605 5601 5597 5593 5589 5586 5583 5579 5576 5574 5571 5568 5566 5564 5562 5560 5558